Location: Umburanas
(4.5000°S, 37.9667°W)
Time: 06:34:36
(UTC+00:00)

Skynet4D Del rocket - Pass Details

Date: 19 November 2019
Orbit: 763 x 1291 km, 26.9° (Epoch: 05 December)

Event Time Altitude Azimuth Distance (km) Brightness Sun altitude
Rises 20:41:30 0° 300° (WNW) 3,597 7.6 -4.2°
Reaches altitude 10° 20:44:16 10° 300° (WNW) 2,574 6.8 -4.8°
Maximum altitude 20:50:21 85° 27° (NNE) 832 3.7 -6.2°
Drops below altitude 10° 20:55:51 10° 117° (ESE) 2,329 5.6 -7.5°
Sets 20:58:15 0° 117° (ESE) 3,231 6.3 -8.1°
